When you browse on this site, cookies collect data to enhance your experience and personalize the content and advertising you see.
Visit our Privacy Policy to learn more. By continuing to use the site, you agree to this use of cookies and data.
  • In Latvia
  • List of Countries
  • For 7 days
  • Water Temperature
  • Weather Map
  • Weather Widgets
  • user-avatar
    Login

    Hourly Weather Novaya Bahmutovka

    Today, 24 August, Saturday

    Time Temperature Precipitation Wind Pressure Humidity
    00:00 +27°C° 0 mm 4 mps 749 mmHg 49%
    01:00 +27°C° 0 mm 4 mps 749 mmHg 50%
    02:00 +27°C° 0 mm 5 mps 749 mmHg 50%
    03:00 +26°C° 0 mm 5 mps 749 mmHg 54%
    04:00 +26°C° 0 mm 5 mps 749 mmHg 56%
    05:00 +25°C° 0 mm 5 mps 749 mmHg 58%
    06:00 +25°C° 0 mm 5 mps 749 mmHg 60%
    07:00 +27°C° 0 mm 5 mps 750 mmHg 54%
    08:00 +28°C° 0 mm 5 mps 750 mmHg 49%
    09:00 +30°C° 0 mm 5 mps 750 mmHg 43%
    10:00 +32°C° 0 mm 6 mps 750 mmHg 40%
    11:00 +34°C° 0 mm 6 mps 750 mmHg 36%
    12:00 +36°C° 0 mm 6 mps 750 mmHg 32%
    13:00 +36°C° 0 mm 6 mps 750 mmHg 32%
    14:00 +36°C° 0 mm 6 mps 750 mmHg 31%
    15:00 +38°C° 0 mm 6 mps 749 mmHg 31%
    16:00 +36°C° 0 mm 6 mps 749 mmHg 33%
    17:00 +35°C° 0 mm 6 mps 749 mmHg 34%
    18:00 +35°C° 0 mm 5 mps 749 mmHg 36%
    19:00 +33°C° 0 mm 5 mps 749 mmHg 39%
    20:00 +30°C° 0 mm 5 mps 750 mmHg 42%
    21:00 +29°C° 0 mm 5 mps 750 mmHg 46%
    22:00 +28°C° 0.1 mm 4 mps 750 mmHg 50%
    23:00 +27°C° 0.1 mm 3 mps 749 mmHg 54%

    Tomorrow, 25 August, Sunday

    Time Temperature Precipitation Wind Pressure Humidity
    00:00 +25°C° 0.1 mm 3 mps 749 mmHg 58%
    01:00 +25°C° 0 mm 3 mps 749 mmHg 60%
    02:00 +25°C° 0 mm 4 mps 749 mmHg 62%
    03:00 +23°C° 0 mm 5 mps 749 mmHg 64%
    04:00 +23°C° 0 mm 5 mps 749 mmHg 65%
    05:00 +22°C° 0 mm 5 mps 749 mmHg 66%
    06:00 +22°C° 0 mm 5 mps 749 mmHg 67%
    07:00 +25°C° 0 mm 5 mps 750 mmHg 62%
    08:00 +26°C° 0 mm 5 mps 750 mmHg 57%
    09:00 +28°C° 0 mm 6 mps 750 mmHg 51%
    10:00 +29°C° 0 mm 5 mps 750 mmHg 46%
    11:00 +32°C° 0 mm 5 mps 750 mmHg 41%
    12:00 +34°C° 0 mm 5 mps 750 mmHg 36%
    13:00 +34°C° 0 mm 5 mps 750 mmHg 35%
    14:00 +34°C° 0 mm 5 mps 750 mmHg 34%
    15:00 +34°C° 0 mm 5 mps 750 mmHg 33%
    16:00 +34°C° 0 mm 5 mps 750 mmHg 36%
    17:00 +33°C° 0 mm 5 mps 750 mmHg 38%
    18:00 +32°C° 0 mm 6 mps 750 mmHg 41%
    19:00 +29°C° 0 mm 6 mps 750 mmHg 40%
    20:00 +28°C° 0 mm 6 mps 751 mmHg 40%
    21:00 +26°C° 0 mm 6 mps 751 mmHg 40%
    22:00 +24°C° 0 mm 6 mps 751 mmHg 40%
    23:00 +25°C° 0 mm 5 mps 752 mmHg 40%

    Day after tomorrow, 26 August, Monday

    Time Temperature Precipitation Wind Pressure Humidity
    00:00 +23°C° 0 mm 5 mps 752 mmHg 41%
    01:00 +22°C° 0 mm 5 mps 752 mmHg 44%
    02:00 +22°C° 0 mm 5 mps 752 mmHg 46%
    03:00 +21°C° 0 mm 5 mps 752 mmHg 49%
    04:00 +21°C° 0 mm 5 mps 752 mmHg 55%
    05:00 +20°C° 0 mm 5 mps 752 mmHg 62%
    06:00 +19°C° 0 mm 5 mps 753 mmHg 68%
    07:00 +21°C° 0 mm 5 mps 753 mmHg 62%
    08:00 +22°C° 0 mm 6 mps 753 mmHg 56%
    09:00 +24°C° 0 mm 6 mps 754 mmHg 50%
    10:00 +26°C° 0 mm 6 mps 753 mmHg 46%
    11:00 +27°C° 0 mm 6 mps 753 mmHg 42%
    12:00 +29°C° 0 mm 6 mps 753 mmHg 38%
    13:00 +29°C° 0 mm 6 mps 753 mmHg 36%
    14:00 +29°C° 0 mm 6 mps 753 mmHg 34%
    15:00 +30°C° 0 mm 6 mps 753 mmHg 32%
    16:00 +29°C° 0 mm 5 mps 753 mmHg 32%
    17:00 +29°C° 0 mm 5 mps 752 mmHg 32%
    18:00 +28°C° 0 mm 5 mps 752 mmHg 32%
    19:00 +26°C° 0 mm 4 mps 752 mmHg 34%
    20:00 +23°C° 0 mm 4 mps 752 mmHg 36%
    21:00 +22°C° 0 mm 4 mps 753 mmHg 38%
    22:00 +21°C° 0 mm 4 mps 752 mmHg 39%
    23:00 +21°C° 0 mm 4 mps 752 mmHg 39%

    27 August, Tuesday

    Time Temperature Precipitation Wind Pressure Humidity
    00:00 +20°C° 0 mm 4 mps 752 mmHg 39%
    01:00 +19°C° 0 mm 4 mps 752 mmHg 41%
    02:00 +19°C° 0 mm 4 mps 752 mmHg 44%
    03:00 +18°C° 0 mm 4 mps 752 mmHg 46%
    04:00 +18°C° 0 mm 3 mps 752 mmHg 47%
    05:00 +17°C° 0 mm 3 mps 751 mmHg 48%
    06:00 +17°C° 0 mm 3 mps 751 mmHg 49%
    07:00 +19°C° 0 mm 3 mps 751 mmHg 44%
    08:00 +22°C° 0 mm 4 mps 751 mmHg 39%
    09:00 +25°C° 0 mm 4 mps 751 mmHg 33%
    10:00 +27°C° 0 mm 3 mps 751 mmHg 31%
    11:00 +28°C° 0 mm 3 mps 751 mmHg 28%
    12:00 +29°C° 0 mm 3 mps 750 mmHg 25%
    13:00 +30°C° 0 mm 3 mps 750 mmHg 24%
    14:00 +30°C° 0 mm 3 mps 749 mmHg 22%
    15:00 +30°C° 0 mm 3 mps 749 mmHg 21%
    16:00 +30°C° 0 mm 3 mps 749 mmHg 22%
    17:00 +29°C° 0 mm 3 mps 748 mmHg 23%
    18:00 +29°C° 0 mm 3 mps 748 mmHg 24%
    19:00 +27°C° 0 mm 3 mps 748 mmHg 27%
    20:00 +25°C° 0 mm 3 mps 748 mmHg 30%
    21:00 +22°C° 0 mm 3 mps 748 mmHg 32%
    22:00 +21°C° 0 mm 3 mps 748 mmHg 34%
    23:00 +20°C° 0 mm 3 mps 748 mmHg 36%

    28 August, Wednesday

    Time Temperature Precipitation Wind Pressure Humidity
    00:00 +20°C° 0 mm 3 mps 748 mmHg 38%
    01:00 +19°C° 0 mm 3 mps 748 mmHg 42%
    02:00 +18°C° 0 mm 3 mps 747 mmHg 45%
    03:00 +18°C° 0 mm 3 mps 747 mmHg 48%
    04:00 +17°C° 0 mm 3 mps 747 mmHg 52%
    05:00 +17°C° 0 mm 3 mps 747 mmHg 56%
    06:00 +17°C° 0 mm 4 mps 747 mmHg 60%
    07:00 +19°C° 0 mm 4 mps 748 mmHg 58%
    08:00 +20°C° 0 mm 5 mps 748 mmHg 57%
    09:00 +22°C° 0 mm 6 mps 748 mmHg 56%
    10:00 +23°C° 0 mm 6 mps 748 mmHg 50%
    11:00 +24°C° 0 mm 6 mps 748 mmHg 43%
    12:00 +26°C° 0 mm 7 mps 748 mmHg 37%
    13:00 +24°C° 0 mm 7 mps 748 mmHg 33%
    14:00 +24°C° 0 mm 7 mps 748 mmHg 28%
    15:00 +24°C° 0 mm 7 mps 748 mmHg 24%
    16:00 +23°C° 0 mm 7 mps 749 mmHg 24%
    17:00 +22°C° 0 mm 6 mps 749 mmHg 24%
    18:00 +21°C° 0 mm 6 mps 749 mmHg 24%
    19:00 +19°C° 0 mm 5 mps 750 mmHg 28%
    20:00 +16°C° 0 mm 5 mps 750 mmHg 32%
    21:00 +14°C° 0 mm 4 mps 750 mmHg 36%
    22:00 +13°C° 0 mm 3 mps 751 mmHg 39%
    23:00 +12°C° 0 mm 3 mps 751 mmHg 42%

    29 August, Thursday

    Time Temperature Precipitation Wind Pressure Humidity
    00:00 +11°C° 0 mm 3 mps 751 mmHg 46%
    01:00 +11°C° 0 mm 3 mps 751 mmHg 48%
    02:00 +10°C° 0 mm 3 mps 751 mmHg 51%
    03:00 +10°C° 0 mm 2 mps 751 mmHg 53%
    04:00 +9°C° 0 mm 2 mps 751 mmHg 54%
    05:00 +9°C° 0 mm 2 mps 751 mmHg 56%
    06:00 +8°C° 0 mm 2 mps 751 mmHg 57%
    07:00 +10°C° 0 mm 2 mps 751 mmHg 51%
    08:00 +12°C° 0 mm 3 mps 751 mmHg 45%
    09:00 +14°C° 0 mm 3 mps 751 mmHg 39%
    10:00 +16°C° 0 mm 3 mps 751 mmHg 36%
    11:00 +18°C° 0 mm 3 mps 751 mmHg 32%
    12:00 +19°C° 0 mm 4 mps 751 mmHg 29%
    13:00 +20°C° 0 mm 4 mps 750 mmHg 28%
    14:00 +21°C° 0 mm 4 mps 750 mmHg 26%
    15:00 +21°C° 0 mm 4 mps 750 mmHg 25%
    16:00 +21°C° 0 mm 4 mps 750 mmHg 27%
    17:00 +20°C° 0 mm 4 mps 750 mmHg 29%
    18:00 +19°C° 0 mm 4 mps 750 mmHg 31%
    19:00 +18°C° 0 mm 4 mps 750 mmHg 35%
    20:00 +15°C° 0 mm 4 mps 750 mmHg 40%
    21:00 +13°C° 0 mm 4 mps 750 mmHg 44%
    22:00 +13°C° 0 mm 4 mps 750 mmHg 47%
    23:00 +12°C° 0 mm 4 mps 750 mmHg 50%
    Show more